Regional Weather Roundup
Issued by NWS

Home | Current Version | Previous Version | Text Only | Print | Product List | Glossary Off
Versions: 1 2 3 4 5 6 7 8 9 10 11 12 13 14 15 16 17 18 19 20 21 22 23 24 25 26 27

000
ASUS45 KCYS 272310
RWRWY

WYOMING REGIONAL WEATHER ROUNDUP
NATIONAL WEATHER SERVICE CHEYENNE WY
500 PM MDT THU APR 27 2017

NOTE:  "FAIR" INDICATES FEW OR NO CLOUDS BELOW 12,000 FEET
WITH NO SIGNIFICANT WEATHER AND/OR OBSTRUCTIONS TO VISIBILITY.

WYZ001-280000-
YELLOWSTONE NATIONAL PARK

CITY           SKY/WX    TMP DP  RH WIND       PRES   REMARKS
LK YELLOWSTONE   N/A     29  23  78 VRB6      29.69R WCI  23
W YELLOWSTONE  NOT AVBL

$$
WYZ002>013-054>058-071-098>099-280000-
NORTHERN WYOMING

CITY           SKY/WX    TMP DP  RH WIND       PRES   REMARKS
JACKSON        MOSUNNY   37  28  70 W12       29.70R WCI  30
CODY           PTSUNNY   44  35  70 N14       29.64R
GREYBULL       FAIR      52  34  50 N29G36    29.54R
WORLAND        FAIR      49  36  61 N26G33    29.54S
SHERIDAN       LGT SNOW  33  32  96 NW7       29.66R FOG     WCI  27
BUFFALO        LGT SNOW  35  31  85 N18G25    29.62R FOG     WCI  24
GILLETTE       LGT RAIN  39  38  96 N8        29.59R WCI  33
HULETT         CLOUDY    37  34  87 E8        29.63R WCI  31
NEWCASTLE      CLOUDY    45  32  61 SE16      29.57R

$$
WYZ014>020-022>026-101>103-280000-
CENTRAL WYOMING

CITY           SKY/WX    TMP DP  RH WIND       PRES   REMARKS
BIG PINEY      PTSUNNY   42  22  44 NW23G32   29.68R
PINEDALE       MOCLDY    36  23  60 NW25G32   29.67R WCI  23
DUBOIS         CLOUDY    34  23  64 NW16      29.63R WCI  23
LANDER         MIX PCPN  35  33  92 NW12      29.61R WCI  27
RIVERTON       LGT RAIN  36  34  92 NW28G33   29.60S WCI  23
CASPER         LGT RAIN  38  35  89 N9        29.56S WCI  31
DOUGLAS        LGT RAIN  42  38  85 E9        29.54R

$$
WYZ021-027>030-104>119-280000-
SOUTHERN WYOMING

CITY           SKY/WX    TMP DP  RH WIND       PRES   REMARKS
EVANSTON       PTSUNNY   38  22  52 W26G32    29.76R WCI  26
KEMMERER         N/A     36  19  51 W28G36    29.72S WCI  23
FORT BRIDGER   MOCLDY    39  24  53 W29G39    29.76S WCI  28
ROCK SPRINGS   FAIR      44  21  40 W32G44    29.65R
DIXON            N/A     46  23  40 W17G28    29.66R
RAWLINS        PTSUNNY   40  29  64 W28G40    29.58R WCI  29
SARATOGA       FAIR      41  30  65 W23       29.61R
LARAMIE        FAIR      43  20  39 W20G29    29.55S
CHEYENNE       FAIR      45  33  63 CALM      29.52F
TORRINGTON     FAIR      45  42  89 E14       29.50S
PINE BLUFFS    CLOUDY    37  36  93 SE8       29.54F WCI  31

$$




USA.gov is the U.S. government's official web portal to all federal, state and local government web resources and services.